TimeEDT,TemperatureF,Dew PointF,Humidity,Sea Level PressureIn,VisibilityMPH,Wind Direction,Wind SpeedMPH,Gust SpeedMPH,PrecipitationIn,Events,Conditions,WindDirDegrees,DateUTC
12:15 AM,55.4,51.8,88,30.15,10.0,Calm,Calm,-,N/A,,Clear,0,2012-10-25 04:15:00
12:55 AM,55.4,50.0,82,30.15,10.0,Calm,Calm,-,N/A,,Clear,0,2012-10-25 04:55:00
1:15 AM,53.6,50.0,88,30.15,10.0,Calm,Calm,-,N/A,,Clear,0,2012-10-25 05:15:00
1:35 AM,53.6,50.0,88,30.15,10.0,Calm,Calm,-,N/A,,Clear,0,2012-10-25 05:35:00
1:55 AM,53.6,50.0,88,30.15,10.0,Calm,Calm,-,N/A,,Clear,0,2012-10-25 05:55:00
2:15 AM,53.6,50.0,88,30.15,10.0,Calm,Calm,-,N/A,,Clear,0,2012-10-25 06:15:00
2:35 AM,53.6,50.0,88,30.15,10.0,Calm,Calm,-,N/A,,Clear,0,2012-10-25 06:35:00
2:55 AM,51.8,48.2,88,30.15,10.0,Calm,Calm,-,N/A,,Clear,0,2012-10-25 06:55:00
3:15 AM,51.8,50.0,94,30.14,10.0,Calm,Calm,-,N/A,,Clear,0,2012-10-25 07:15:00
3:35 AM,51.8,50.0,94,30.14,10.0,Calm,Calm,-,N/A,,Clear,0,2012-10-25 07:35:00
3:55 AM,51.8,48.2,88,30.13,10.0,Calm,Calm,-,N/A,,Clear,0,2012-10-25 07:55:00
4:15 AM,51.8,48.2,88,30.13,10.0,Calm,Calm,-,N/A,,Clear,0,2012-10-25 08:15:00
4:35 AM,51.8,48.2,88,30.12,10.0,Calm,Calm,-,N/A,,Clear,0,2012-10-25 08:35:00
4:55 AM,50.0,46.4,87,30.13,10.0,Calm,Calm,-,N/A,,Clear,0,2012-10-25 08:55:00
5:15 AM,50.0,46.4,87,30.13,10.0,Calm,Calm,-,N/A,,Clear,0,2012-10-25 09:15:00
5:35 AM,50.0,46.4,87,30.13,10.0,Calm,Calm,-,N/A,,Clear,0,2012-10-25 09:35:00
5:55 AM,50.0,46.4,87,30.13,10.0,Calm,Calm,-,N/A,,Clear,0,2012-10-25 09:55:00
6:15 AM,50.0,46.4,87,30.13,10.0,Calm,Calm,-,N/A,,Clear,0,2012-10-25 10:15:00
6:35 AM,50.0,46.4,87,30.14,7.0,Calm,Calm,-,N/A,,Clear,0,2012-10-25 10:35:00
6:55 AM,50.0,46.4,87,30.14,7.0,Calm,Calm,-,N/A,,Clear,0,2012-10-25 10:55:00
7:15 AM,48.2,46.4,93,30.14,7.0,Calm,Calm,-,N/A,,Clear,0,2012-10-25 11:15:00
7:35 AM,50.0,46.4,87,30.14,5.0,Calm,Calm,-,N/A,,Clear,0,2012-10-25 11:35:00
7:55 AM,50.0,46.4,87,30.14,4.0,Calm,Calm,-,N/A,,Clear,0,2012-10-25 11:55:00
8:15 AM,51.8,48.2,88,30.15,7.0,Calm,Calm,-,N/A,,Clear,0,2012-10-25 12:15:00
8:35 AM,53.6,50.0,88,30.15,10.0,Calm,Calm,-,N/A,,Clear,0,2012-10-25 12:35:00
9:15 AM,55.4,51.8,88,30.16,10.0,Calm,Calm,-,N/A,,Clear,0,2012-10-25 13:15:00
9:35 AM,59.0,53.6,82,30.17,10.0,Calm,Calm,-,N/A,,Clear,0,2012-10-25 13:35:00
9:55 AM,62.6,55.4,77,30.17,10.0,Calm,Calm,-,N/A,,Clear,0,2012-10-25 13:55:00
10:15 AM,64.4,55.4,73,30.17,10.0,Calm,Calm,-,N/A,,Clear,0,2012-10-25 14:15:00
10:35 AM,66.2,57.2,73,30.18,10.0,Calm,Calm,-,N/A,,Clear,0,2012-10-25 14:35:00
10:55 AM,69.8,53.6,56,30.18,10.0,SSE,3.5,-,N/A,,Clear,160,2012-10-25 14:55:00
11:15 AM,69.8,53.6,56,30.18,10.0,ESE,3.5,-,N/A,,Clear,120,2012-10-25 15:15:00
11:35 AM,69.8,53.6,56,30.18,10.0,Calm,Calm,-,N/A,,Clear,0,2012-10-25 15:35:00
11:55 AM,71.6,53.6,53,30.18,10.0,South,3.5,-,N/A,,Clear,170,2012-10-25 15:55:00
12:15 PM,71.6,53.6,53,30.17,10.0,South,4.6,-,N/A,,Clear,180,2012-10-25 16:15:00
12:35 PM,73.4,53.6,50,30.17,10.0,SE,4.6,-,N/A,,Clear,140,2012-10-25 16:35:00
12:55 PM,73.4,51.8,47,30.16,10.0,SE,6.9,-,N/A,,Clear,130,2012-10-25 16:55:00
1:15 PM,73.4,51.8,47,30.16,10.0,SSE,6.9,-,N/A,,Clear,150,2012-10-25 17:15:00
1:35 PM,75.2,51.8,44,30.15,10.0,SE,6.9,-,N/A,,Clear,140,2012-10-25 17:35:00
1:55 PM,75.2,51.8,44,30.14,10.0,ESE,5.8,-,N/A,,Clear,110,2012-10-25 17:55:00
2:15 PM,75.2,51.8,44,30.14,10.0,Calm,Calm,-,N/A,,Clear,0,2012-10-25 18:15:00
2:35 PM,77.0,51.8,41,30.13,10.0,SSE,6.9,-,N/A,,Clear,160,2012-10-25 18:35:00
2:55 PM,77.0,51.8,41,30.13,10.0,SSE,3.5,-,N/A,,Clear,150,2012-10-25 18:55:00
3:15 PM,77.0,51.8,41,30.12,10.0,SSE,3.5,-,N/A,,Clear,150,2012-10-25 19:15:00
3:35 PM,77.0,51.8,41,30.12,10.0,South,5.8,-,N/A,,Clear,180,2012-10-25 19:35:00
3:55 PM,77.0,51.8,41,30.12,10.0,SE,6.9,-,N/A,,Clear,140,2012-10-25 19:55:00
4:15 PM,77.0,53.6,44,30.12,10.0,South,3.5,-,N/A,,Clear,190,2012-10-25 20:15:00
4:35 PM,75.2,53.6,47,30.11,10.0,SSE,5.8,-,N/A,,Clear,160,2012-10-25 20:35:00
4:55 PM,75.2,53.6,47,30.12,10.0,South,3.5,-,N/A,,Clear,170,2012-10-25 20:55:00
5:15 PM,73.4,53.6,50,30.12,10.0,South,3.5,-,N/A,,Clear,170,2012-10-25 21:15:00
5:35 PM,73.4,53.6,50,30.12,10.0,SE,4.6,-,N/A,,Scattered Clouds,140,2012-10-25 21:35:00
5:55 PM,73.4,55.4,53,30.13,10.0,South,3.5,-,N/A,,Scattered Clouds,190,2012-10-25 21:55:00
6:15 PM,71.6,55.4,57,30.13,10.0,Calm,Calm,-,N/A,,Clear,0,2012-10-25 22:15:00
6:35 PM,71.6,55.4,57,30.13,10.0,Calm,Calm,-,N/A,,Clear,0,2012-10-25 22:35:00
6:55 PM,68.0,55.4,64,30.14,10.0,Calm,Calm,-,N/A,,Clear,0,2012-10-25 22:55:00
7:15 PM,64.4,55.4,73,30.14,10.0,Calm,Calm,-,N/A,,Scattered Clouds,0,2012-10-25 23:15:00
7:55 PM,62.6,55.4,77,30.14,10.0,Calm,Calm,-,N/A,,Clear,0,2012-10-25 23:55:00
8:15 PM,62.6,55.4,77,30.14,10.0,Calm,Calm,-,N/A,,Scattered Clouds,0,2012-10-26 00:15:00
8:35 PM,60.8,55.4,82,30.14,10.0,Calm,Calm,-,N/A,,Mostly Cloudy,0,2012-10-26 00:35:00
9:15 PM,62.6,55.4,77,30.14,10.0,Calm,Calm,-,N/A,,Scattered Clouds,0,2012-10-26 01:15:00
9:35 PM,62.6,55.4,77,30.14,10.0,Calm,Calm,-,N/A,,Mostly Cloudy,0,2012-10-26 01:35:00
9:55 PM,62.6,55.4,77,30.13,10.0,Calm,Calm,-,N/A,,Scattered Clouds,0,2012-10-26 01:55:00
10:15 PM,62.6,55.4,77,30.13,10.0,Calm,Calm,-,N/A,,Clear,0,2012-10-26 02:15:00
10:35 PM,62.6,55.4,77,30.13,10.0,Calm,Calm,-,N/A,,Clear,0,2012-10-26 02:35:00
11:15 PM,59.0,53.6,82,30.13,10.0,Calm,Calm,-,N/A,,Clear,0,2012-10-26 03:15:00